{"data":{"norad_id":45384,"intl_designator":"2020-019AA","name":"STARLINK-1267","alt_names":[],"object_type":"PAYLOAD","status":"ACTIVE","operator":null,"country":"US","launch_date":"2020-03-18","launch_site_code":"AFETR","launch_vehicle":null,"mission":null,"orbit_class":"UNKNOWN","rcs_meters":null,"size_class":null,"mass_kg":null,"dimensions":null,"purposes":["comms"],"wikipedia_slug":null,"has_3d_model":false,"image_url":null,"decayed_at":null,"tle_current":{"epoch":"2026-05-25T05:04:04.197216Z","epoch_age_seconds":53310,"freshness":"FRESH","line1":"1 45384U 20019AA  26145.21115969  .00084406  00000+0  89846-3 0  9997","line2":"2 45384  53.0441 116.0735 0007741  59.6029 300.5749 15.63274724342206","mean_motion":15.63274724,"eccentricity":0.0007741,"inclination_deg":53.0441,"raan_deg":116.0735,"arg_perigee_deg":59.6029,"mean_anomaly_deg":300.5749,"bstar":0.00089846,"rev_number":34220,"period_min":92.114327564603,"perigee_km":372.97510638017,"apogee_km":383.43527536008,"semimajor_km":6756.3421908701,"source":"CELESTRAK","updated_at":"2026-05-25T13:38:16.416006Z"}}}